EST,Max TemperatureF,Mean TemperatureF,Min TemperatureF,Max Dew PointF,MeanDew PointF,Min DewpointF,Max Humidity, Mean Humidity, Min Humidity, Max Sea Level PressureIn, Mean Sea Level PressureIn, Min Sea Level PressureIn, Max VisibilityMiles, Mean VisibilityMiles, Min VisibilityMiles, Max Wind SpeedMPH, Mean Wind SpeedMPH, Max Gust SpeedMPH,PrecipitationIn, CloudCover, Events, WindDirDegrees
2012-11-1,50,44,39,37,34,27,93,75,47,29.83,29.79,29.75,10,8,4,17,10,24,0.03,7,Rain,278
2012-11-2,48,41,36,32,28,26,73,59,47,30.09,29.95,29.83,10,10,10,13,6,21,0.00,6,,317
2012-11-3,46,42,39,34,30,28,73,62,52,30.19,30.14,30.09,10,10,9,7,2,,0.00,6,,359
2012-11-4,46,36,27,32,30,25,92,73,55,30.17,30.15,30.13,10,10,10,6,3,,0.00,6,,22
2012-11-5,46,36,26,31,27,23,92,71,46,30.21,30.17,30.13,10,9,4,7,2,,0.00,2,,55
2012-11-6,48,36,23,30,26,19,89,71,44,30.14,30.04,29.94,10,9,6,6,1,,0.00,1,,59
2012-11-7,54,41,28,33,28,24,85,66,40,30.11,29.98,29.91,10,9,6,9,3,,0.00,2,,11
2012-11-8,48,34,21,34,26,18,92,76,46,30.25,30.19,30.12,10,7,4,8,1,,0.00,0,,320
2012-11-9,57,41,25,38,31,21,92,72,45,30.30,30.22,30.16,10,8,4,12,2,,0.00,0,,196
2012-11-10,71,56,41,41,38,35,79,59,30,30.24,30.20,30.14,10,10,10,14,6,23,0.01,3,Thunderstorm,191
2012-11-11,68,54,39,38,34,32,79,50,26,30.32,30.22,30.12,10,10,10,15,5,24,0.00,0,,164
2012-11-12,62,47,30,54,42,27,94,83,39,30.41,30.15,30.02,10,6,1,22,12,31,0.55,6,Rain,266
2012-11-13,41,32,23,28,23,19,89,73,49,30.55,30.49,30.42,10,10,9,8,3,,0.00,2,,266
2012-11-14,41,30,19,26,23,17,89,75,55,30.58,30.50,30.40,10,9,6,12,3,,0.00,0,,70
2012-11-15,48,34,21,29,25,17,92,76,46,30.40,30.37,30.33,10,8,4,5,1,,0.00,0,,180
2012-11-16,51,36,21,36,25,19,100,82,50,30.51,30.43,30.36,10,5,1,8,1,,0.00,0,,40
2012-11-17,55,38,21,33,23,18,93,76,33,30.60,30.53,30.49,10,6,1,9,1,,0.00,0,,73
2012-11-18,59,40,21,29,23,18,91,66,25,30.53,30.47,30.42,10,10,8,6,1,,0.00,0,,94
2012-11-19,55,38,21,37,28,20,92,75,42,30.41,30.34,30.22,10,10,9,6,0,,0.00,0,,90
2012-11-20,55,44,32,39,35,29,93,74,45,30.20,30.16,30.11,10,10,7,5,1,,0.00,5,,289
2012-11-21,61,44,28,39,33,28,100,82,38,30.26,30.21,30.14,10,6,0,5,0,,0.00,2,Fog,310
2012-11-22,63,44,26,40,30,24,100,78,38,30.26,30.18,30.02,10,6,1,12,1,17,0.00,0,,199
2012-11-23,55,42,30,46,34,17,87,65,48,30.15,29.99,29.92,10,8,2,21,11,33,0.01,6,Rain,267
2012-11-24,33,32,30,23,20,19,75,65,59,30.20,30.16,30.11,10,9,3,13,9,20,0.00,8,Snow,281
2012-11-25,43,36,28,25,21,18,79,61,41,30.13,30.02,29.91,10,10,10,14,6,22,0.00,3,,228
2012-11-26,48,36,25,29,26,21,88,65,36,30.23,30.17,30.05,10,10,7,7,2,,0.00,4,,344
2012-11-27,37,31,23,31,27,19,89,75,59,30.35,30.29,30.23,10,8,5,10,5,,0.00,7,Rain-Snow,7
2012-11-28,41,30,19,24,19,14,88,71,41,30.42,30.38,30.32,10,8,4,13,2,18,0.00,1,,262
2012-11-29,48,34,19,26,20,15,85,69,32,30.44,30.36,30.29,10,8,5,10,2,,0.00,1,,193
2012-11-30,57,44,30,34,29,23,85,64,39,30.29,30.24,30.18,10,10,9,13,5,20,0.00,4,,191